GEFSNGP_500_meanwind_048.txt.gz
Wind_Speed
28 28 28 28 29 31 33 36 38 40 43 46 50 54 58 62 65 68 69 69 69 69 68 67 64 62 61 60 59 59 59 59 59 59 60 60 61 62 63 63 62 56 48 40
28 28 28 27 29 31 33 36 38 40 43 47 50 54 58 62 66 67 67 68 68 68 67 65 62 60 59 59 59 58 58 58 58 59 60 61 62 64 65 64 62 55 46 37
30 30 29 29 31 33 34 37 39 41 44 48 51 55 59 63 65 66 66 66 67 66 66 63 61 59 58 58 58 57 57 57 58 60 61 61 63 64 66 65 62 55 46 36
35 34 33 34 35 36 36 38 40 42 45 48 52 56 59 63 64 65 65 66 66 65 64 62 60 58 58 58 57 56 56 57 58 59 60 61 63 64 66 66 62 56 47 37
38 38 36 37 38 39 40 39 42 44 46 49 53 56 59 62 63 64 64 65 64 64 62 60 58 57 56 56 56 55 55 56 57 59 60 61 62 64 65 65 63 58 50 41
38 40 41 42 41 41 43 42 45 46 47 50 52 55 58 61 63 63 64 64 64 63 61 59 57 55 55 55 54 54 55 56 57 58 59 60 62 64 65 65 64 60 54 45
39 41 42 45 44 44 43 45 47 47 48 50 52 55 58 61 62 62 63 63 63 62 60 58 56 54 54 53 53 53 54 56 57 57 58 60 62 63 65 65 64 61 57 51
42 44 45 47 46 45 45 46 46 47 48 50 52 55 58 60 61 62 62 62 62 61 59 56 55 53 53 52 52 52 53 55 56 57 57 58 60 61 63 63 63 61 58 54
40 42 44 47 47 46 46 46 47 47 48 50 52 55 58 60 61 61 61 61 61 60 58 56 54 52 51 51 51 51 52 53 54 56 56 57 58 59 60 61 61 61 59 55
40 43 45 48 48 48 47 47 47 48 49 50 52 55 57 59 60 60 60 60 60 59 57 55 53 51 50 50 50 50 51 51 52 54 55 55 56 57 58 59 59 60 59 57
39 43 45 48 49 49 49 48 48 48 49 51 52 54 57 59 59 59 59 59 59 58 56 54 52 50 49 48 49 49 49 50 51 52 53 54 56 56 57 58 59 59 59 57
39 43 46 48 50 50 50 49 49 49 50 51 53 54 57 58 59 59 58 58 58 57 55 53 51 50 48 48 48 48 48 49 49 50 52 53 54 55 57 57 57 58 58 58
39 42 46 48 51 52 51 50 49 49 50 51 53 55 57 58 58 58 58 57 57 56 55 53 51 49 48 47 47 47 48 48 48 49 50 51 52 53 53 55 56 56 56 56
39 42 45 48 51 52 52 51 50 50 50 51 53 55 56 58 58 58 57 57 56 55 54 52 50 48 47 46 46 46 47 48 48 48 49 50 51 52 52 52 52 53 54 54
39 42 45 48 50 52 53 52 51 50 51 52 53 54 56 57 58 57 57 56 55 55 53 52 50 48 47 46 45 45 46 46 47 47 48 49 50 50 50 51 51 51 51 52
39 42 44 47 50 52 54 53 52 51 51 52 53 54 56 57 57 57 56 55 55 54 53 51 49 47 46 45 45 45 45 46 46 46 47 48 48 48 49 49 50 50 50 50
39 42 44 47 49 52 54 54 53 51 51 52 53 54 55 57 57 57 56 55 54 53 52 51 48 47 45 45 44 44 44 45 45 45 46 47 47 47 48 48 48 48 49 49
40 42 44 46 49 51 53 54 53 52 52 52 53 54 55 56 56 56 56 55 53 52 51 50 48 46 45 44 44 43 43 44 44 44 45 46 46 46 47 47 47 47 47 47
40 42 44 46 48 50 53 54 54 53 52 52 53 54 55 56 56 56 55 54 53 52 51 49 48 46 44 44 44 43 43 43 43 44 44 45 45 45 45 45 45 45 45 46
41 43 44 45 48 50 52 54 54 53 52 52 53 53 54 55 55 55 55 53 52 51 50 49 48 46 44 43 43 43 42 42 42 42 43 43 44 44 44 44 44 44 44 44
42 43 44 45 47 49 51 53 55 54 53 52 53 53 54 55 55 55 54 53 52 50 49 49 47 46 44 43 42 42 42 42 42 41 41 42 43 43 43 43 43 43 43 43
43 44 44 46 47 49 51 52 54 54 53 52 52 53 53 54 54 54 53 52 51 49 48 48 47 46 44 43 42 41 41 41 41 41 41 41 42 42 42 42 42 42 42 42
44 44 45 46 47 49 50 52 54 54 53 52 51 52 53 53 53 53 52 52 50 49 48 47 47 46 44 43 42 41 41 41 41 41 40 40 41 41 41 41 41 41 41 41
45 45 45 46 47 48 50 51 53 54 53 51 51 52 52 52 52 53 52 51 50 49 47 46 46 45 44 43 41 40 40 40 40 40 40 40 40 40 40 40 40 40 40 40
46 46 46 47 47 48 50 51 53 54 53 51 50 51 52 52 52 52 52 51 49 48 47 46 45 45 44 43 41 40 39 39 39 39 39 39 39 39 39 38 38 38 38 38
47 47 47 47 47 48 50 51 52 53 53 51 50 50 51 51 51 51 51 50 49 48 46 45 44 44 44 43 41 39 39 38 38 38 38 38 38 38 38 37 36 36 37 37
49 48 48 47 47 48 50 51 52 53 52 50 49 50 50 50 50 50 50 50 48 47 46 44 44 43 43 42 41 39 38 37 37 37 37 37 37 37 37 36 36 35 35 36

GEFSNGP_500_meanwind_054.txt.gz
Wind_Speed
21 24 26 29 31 33 35 37 38 39 40 42 44 46 49 51 54 57 59 61 63 65 66 68 69 68 67 65 62 61 59 59 59 59 60 61 62 63 64 65 64 63 60 55
21 23 25 28 31 34 36 38 40 41 41 43 45 47 49 52 54 57 59 61 63 64 66 67 68 67 65 63 61 60 59 58 58 58 59 60 61 62 63 64 64 63 61 56
19 23 25 28 32 34 37 40 42 43 44 45 46 47 50 52 55 57 59 61 62 64 65 66 66 66 64 62 60 59 58 57 57 57 58 59 60 62 62 63 63 62 60 57
19 23 27 30 33 36 38 41 43 44 45 46 47 49 51 53 55 57 59 61 62 63 64 65 65 65 63 61 60 58 57 56 56 56 57 58 59 60 61 62 62 62 60 58
21 23 26 30 34 37 39 41 44 46 47 48 49 50 51 54 56 57 59 60 61 62 63 64 64 64 62 61 59 58 57 56 55 55 56 57 58 59 60 61 61 61 60 59
22 25 29 32 35 39 42 44 47 49 50 51 51 51 53 55 56 57 58 60 61 62 63 63 64 63 62 60 59 57 56 55 55 55 55 56 56 57 59 60 60 61 60 59
22 25 28 31 35 39 42 45 48 50 51 53 53 53 53 55 56 57 58 60 61 61 62 62 63 62 61 60 58 57 56 55 54 54 55 55 55 56 57 58 59 60 60 59
24 27 29 32 36 39 41 44 47 50 52 54 54 54 55 56 57 57 58 59 60 61 61 61 62 62 61 59 58 56 56 55 54 54 54 54 54 54 55 55 56 57 57 57
24 27 30 32 35 38 41 44 47 50 52 55 56 56 56 56 57 58 58 59 60 60 60 61 61 61 60 59 57 56 55 54 54 53 54 53 53 53 52 53 54 54 55 55
25 27 30 33 35 38 41 44 47 50 52 55 57 58 57 57 57 58 58 59 59 60 60 60 60 60 60 58 57 55 54 54 53 52 52 53 52 51 51 51 51 52 53 53
27 28 30 32 35 38 41 43 47 50 52 54 57 59 59 58 58 58 58 59 59 59 59 59 59 59 59 58 56 54 53 53 52 52 51 52 52 51 50 51 51 52 52 52
30 31 32 34 36 38 41 43 46 49 52 54 56 59 60 59 58 58 58 58 58 59 58 58 58 58 58 57 56 54 52 51 51 51 50 51 50 51 51 50 50 51 51 51
34 34 34 36 38 39 41 43 46 49 51 54 56 58 60 60 59 58 58 58 58 58 58 58 58 57 57 57 55 53 52 50 50 50 50 50 49 49 48 49 50 49 49 49
36 36 36 37 39 40 42 44 46 49 51 53 55 57 59 61 60 59 58 58 57 57 57 57 57 56 56 56 55 53 52 50 49 49 49 49 49 49 48 47 47 47 47 47
38 39 39 40 41 41 42 44 46 48 51 53 55 57 59 61 61 59 58 57 57 56 56 56 56 55 55 55 54 53 51 50 48 48 48 48 49 49 48 48 47 47 46 45
40 41 41 42 42 43 43 45 47 48 50 52 54 56 57 59 61 60 58 57 56 55 55 55 55 54 54 54 54 53 51 49 48 47 47 47 48 48 47 47 47 46 45 45
43 42 43 43 43 44 44 45 47 48 50 51 53 55 56 58 60 61 59 57 56 55 54 54 54 53 53 53 53 52 51 49 47 46 46 46 47 47 47 46 46 46 46 45
44 45 45 45 45 45 46 46 47 48 49 50 52 54 56 57 59 61 59 57 55 54 53 53 53 52 52 52 52 52 51 49 47 46 45 45 45 46 46 46 45 45 45 44
46 47 47 47 47 47 47 47 47 48 49 50 51 53 55 56 58 60 60 57 55 53 53 52 52 51 51 51 51 51 50 49 47 46 45 44 44 45 45 45 45 44 44 43
47 48 49 48 48 48 47 47 48 48 49 49 50 52 54 55 57 59 59 57 55 53 52 51 51 51 50 50 50 50 50 49 47 45 44 44 43 44 44 45 44 43 43 43
50 51 50 50 50 49 49 49 48 48 48 48 50 52 53 54 55 58 59 57 54 53 51 50 50 50 49 49 49 49 49 48 47 45 43 43 43 43 43 44 43 42 42 42
53 52 52 52 51 51 50 50 49 48 47 47 49 51 52 53 54 57 58 56 54 52 50 49 49 49 48 48 48 48 48 48 46 44 43 41 42 42 43 43 43 42 41 41
55 53 52 51 51 52 51 50 48 47 47 47 48 50 51 52 53 55 57 56 53 51 49 48 48 48 47 47 47 47 47 47 46 44 42 41 40 41 41 42 42 41 40 40
57 54 51 51 51 52 50 49 48 47 47 47 48 49 50 51 52 54 56 55 52 50 48 47 47 47 46 46 46 46 46 46 46 44 42 40 40 40 40 41 41 40 40 40
57 55 53 52 51 51 50 50 49 47 47 47 47 48 49 50 51 53 55 54 51 49 47 46 46 46 45 45 45 45 45 46 45 43 41 40 39 39 39 39 40 39 39 39
56 55 54 52 52 52 51 50 49 48 47 47 47 48 49 50 50 52 54 53 50 47 46 45 45 45 44 44 44 44 44 45 44 43 41 39 38 38 38 38 38 38 38 38
56 55 55 54 52 52 51 51 50 48 47 47 47 48 48 49 50 51 52 51 48 46 45 44 44 44 43 43 43 43 43 44 44 42 40 38 37 37 36 36 36 37 37 37

GEFSNGP_500_meanwind_060.txt.gz
Wind_Speed
11 12 14 16 19 21 23 26 29 31 34 38 41 44 47 49 52 54 56 57 58 60 61 63 64 65 66 67 68 68 67 65 64 61 59 58 57 57 57 56 57 57 57 57
13 14 15 17 19 22 24 26 29 32 34 38 42 45 48 51 53 55 58 60 60 61 62 63 64 65 66 67 67 67 66 65 63 61 59 58 57 56 56 56 56 56 56 56
15 16 16 18 19 22 25 27 30 33 36 39 42 45 49 52 54 56 59 62 63 62 62 63 64 65 66 66 67 67 66 64 62 60 59 57 57 56 55 55 55 55 55 54
18 18 19 20 21 23 25 28 31 33 37 39 42 46 49 52 55 57 60 63 64 64 64 63 64 65 66 66 66 66 65 64 62 60 58 57 56 55 55 54 54 54 54 53
22 22 22 22 24 25 27 28 32 35 37 40 43 46 49 52 55 58 60 63 65 66 65 64 64 65 66 66 66 66 65 64 62 59 57 56 55 55 54 54 54 53 53 52
26 26 25 26 27 28 30 31 33 36 39 41 44 47 49 52 55 58 60 63 65 67 67 65 65 65 65 65 65 65 65 63 62 59 57 56 55 54 54 54 53 53 52 52
29 29 28 29 30 31 31 34 36 38 40 42 45 47 49 52 55 58 60 62 65 67 68 67 65 65 65 65 65 65 65 64 62 59 57 55 54 54 53 53 53 52 51 51
32 31 31 32 32 33 34 34 36 38 41 43 45 47 49 52 55 57 60 62 64 66 68 68 66 65 65 65 65 64 64 63 62 59 57 55 54 53 53 52 52 51 50 49
35 33 34 34 34 35 36 37 38 39 41 43 46 47 49 51 54 57 59 61 63 65 67 68 67 65 65 65 65 64 63 63 62 60 57 55 53 52 52 51 51 50 49 48
38 34 35 37 37 38 39 39 40 41 42 44 46 48 48 50 53 56 59 61 62 64 66 68 67 66 65 64 64 63 63 62 61 60 57 55 52 52 51 50 50 49 49 48
40 37 38 39 39 40 40 41 41 42 43 45 47 48 49 50 52 56 58 60 61 63 65 67 67 66 65 64 63 63 62 62 61 59 57 55 53 51 50 50 50 49 49 48
42 40 43 42 41 42 42 43 43 44 45 46 47 48 49 49 52 55 57 59 60 61 63 65 67 66 65 63 63 62 61 61 60 59 57 54 52 51 51 50 50 49 48 48
43 43 45 45 45 44 45 45 45 46 47 47 48 49 49 49 51 54 56 58 59 60 62 64 66 65 64 63 62 61 61 60 59 58 57 54 51 50 49 49 49 49 48 47
44 46 47 46 47 46 46 47 48 48 48 49 49 50 50 50 51 53 56 56 57 59 60 62 64 65 64 62 61 60 60 59 59 58 57 54 51 49 48 47 47 47 47 46
47 48 50 49 48 48 48 49 49 49 49 50 50 50 51 50 51 53 55 56 56 57 59 60 62 63 63 62 60 59 59 59 58 58 57 55 52 49 48 47 46 46 45 45
54 53 52 51 50 49 50 50 50 50 51 51 50 51 52 52 51 52 53 54 55 56 57 59 60 62 62 61 59 58 58 58 57 57 56 55 52 49 48 46 45 45 44 44
61 59 57 55 53 51 51 52 52 53 53 52 51 51 52 52 51 51 52 53 54 54 56 57 59 60 61 60 58 57 57 57 56 56 55 54 52 49 47 46 45 45 44 43
65 64 63 61 57 55 54 54 54 54 54 53 53 52 53 52 52 51 52 52 52 53 54 55 57 59 59 58 57 56 55 55 55 55 55 54 52 50 47 45 44 44 44 43
66 66 65 64 61 58 57 56 56 57 56 55 54 54 54 53 53 52 51 51 51 51 52 53 55 57 58 57 56 55 54 54 54 54 54 53 52 50 47 45 44 43 43 43
62 62 62 62 61 60 58 56 57 57 57 57 55 54 54 54 54 53 51 50 50 50 50 51 53 55 56 55 54 53 52 52 52 53 53 52 51 50 47 45 43 42 42 42
63 63 61 60 59 58 58 57 56 56 56 56 55 55 55 54 53 52 51 49 49 48 49 49 51 53 54 54 52 51 51 51 51 51 51 51 51 49 47 45 43 42 42 41
64 64 62 61 59 58 57 56 56 56 55 54 55 55 55 54 53 51 49 48 47 46 47 48 49 50 52 52 50 50 49 49 50 50 50 50 50 49 47 45 43 41 41 40
66 65 63 61 60 58 56 55 55 55 55 55 54 54 54 53 52 50 48 47 45 44 45 46 47 48 50 49 48 47 47 48 48 49 49 49 49 48 46 45 42 41 40 39
67 67 65 63 60 58 57 55 54 54 54 54 53 53 53 53 51 49 48 46 43 43 44 44 45 46 48 47 46 45 45 46 47 47 48 48 48 47 46 44 42 40 39 38
66 64 63 62 61 59 56 55 53 53 53 53 52 51 51 50 50 48 46 44 42 41 42 43 43 44 45 45 44 43 43 44 45 46 46 47 47 46 45 43 42 40 38 37
64 63 61 59 58 57 55 54 53 52 52 51 51 51 50 49 48 47 45 43 41 40 41 41 42 42 43 42 41 41 41 42 43 44 45 45 46 45 44 42 41 39 38 36
63 63 61 58 55 54 54 53 52 50 50 50 51 51 50 49 47 46 44 42 40 39 39 39 39 40 40 40 39 39 39 40 41 42 43 44 44 44 43 42 40 38 37 35

GEFSNGP_500_meanwind_066.txt.gz
Wind_Speed
24 25 25 25 24 25 26 26 27 27 28 30 32 35 37 40 42 45 47 49 52 55 58 62 64 66 68 70 73 74 73 72 72 72 72 72 70 67 64 62 61 60 58 57
27 28 29 28 26 28 28 29 29 30 31 32 34 36 38 40 43 45 48 50 52 55 58 61 64 66 68 70 72 74 74 73 72 72 72 71 70 67 64 62 60 59 58 57
31 31 32 30 28 30 31 31 32 33 34 35 36 37 40 42 44 46 49 51 53 55 58 61 64 66 68 70 72 74 74 73 72 72 71 70 69 66 64 61 59 58 57 56
35 34 35 31 31 32 33 33 35 36 37 38 39 39 41 44 46 47 50 52 53 55 57 60 63 66 67 70 71 73 74 73 72 72 71 70 69 66 63 61 59 58 56 55
38 38 38 33 33 35 37 36 37 39 40 41 42 42 42 45 47 48 50 52 54 55 57 60 63 66 67 69 71 72 74 73 72 71 70 69 68 66 63 61 59 57 56 55
40 42 42 37 37 38 40 40 40 41 42 43 44 46 45 47 48 49 51 53 54 56 57 59 62 65 67 68 70 71 73 73 72 71 70 69 68 66 63 61 58 57 55 55
42 44 44 40 40 41 42 43 43 44 45 46 47 48 49 50 50 51 52 53 55 56 57 59 61 64 66 68 69 70 72 73 72 71 70 69 67 66 63 60 58 56 55 54
44 46 44 42 41 42 44 45 46 48 49 50 50 50 51 51 52 53 53 54 56 57 57 59 60 63 65 67 68 70 71 72 71 70 69 68 67 65 63 60 58 56 54 54
48 47 44 42 41 43 45 48 49 51 52 53 53 53 53 53 54 54 54 55 56 57 57 58 60 61 64 66 67 68 69 70 70 69 68 67 66 65 63 60 58 55 54 53
51 48 43 43 43 44 46 50 51 53 55 56 56 55 55 55 55 55 55 55 56 57 58 58 59 61 63 64 66 67 68 69 69 68 67 67 65 64 63 61 58 55 53 52
54 50 48 46 46 47 50 51 53 55 56 57 58 58 58 57 56 56 56 56 56 57 58 58 59 60 62 63 64 65 66 67 68 67 66 66 65 64 62 61 58 56 53 52
58 54 57 55 53 53 54 55 56 57 58 58 59 60 60 60 59 58 58 57 57 57 58 58 59 60 61 62 63 64 64 65 66 66 65 64 63 63 62 60 58 55 53 52
61 59 61 61 59 58 59 59 59 59 60 60 60 60 61 61 61 60 59 58 58 57 58 58 58 59 60 61 62 62 63 63 65 64 64 63 62 61 60 59 58 56 53 51
63 64 66 65 64 63 63 62 61 61 60 60 61 62 62 62 62 61 60 60 59 58 58 58 58 58 59 60 60 60 61 61 63 63 62 61 61 60 59 58 56 55 53 51
62 64 67 67 66 65 64 64 64 63 62 62 62 62 62 62 62 61 61 60 60 58 58 57 57 57 58 58 58 58 59 59 60 61 60 60 59 59 58 57 56 54 52 51
61 62 62 63 63 61 61 61 61 60 60 60 60 61 62 62 62 61 61 60 59 58 58 57 57 56 56 56 56 56 57 57 58 59 59 58 58 57 57 56 55 54 52 50
57 57 57 57 57 56 56 56 56 56 56 56 56 57 58 58 59 59 59 59 59 58 58 57 56 56 55 55 55 55 55 55 55 57 56 56 56 55 55 55 54 53 51 50
49 50 51 52 52 52 52 52 52 52 53 53 53 53 53 54 54 55 56 56 57 58 57 57 57 55 54 53 53 53 53 53 53 54 54 54 53 54 54 54 53 52 51 49
46 47 48 48 49 49 50 50 50 50 50 51 51 51 52 52 52 53 54 54 55 56 56 57 57 55 53 52 52 51 51 50 50 51 52 51 51 52 52 52 52 51 50 49
45 46 47 47 48 49 50 51 51 51 52 52 52 52 52 52 52 52 52 52 53 55 55 56 56 54 53 51 50 49 49 48 48 49 49 49 49 49 50 50 50 50 49 48
48 48 49 50 51 52 53 53 54 54 54 54 53 53 52 52 52 52 51 51 52 54 54 55 55 53 51 50 48 47 46 45 45 46 46 46 46 47 47 48 49 48 47 47
49 50 51 52 53 53 54 55 56 57 57 57 56 55 54 53 53 52 52 51 52 53 53 53 53 51 49 48 46 45 44 43 43 43 43 43 44 45 45 46 47 47 46 45
50 51 52 54 55 55 56 57 58 58 59 59 59 57 56 55 53 52 50 51 51 52 52 52 51 50 47 45 44 42 41 41 40 40 40 41 42 42 43 44 45 45 45 44
53 54 55 56 58 59 60 60 61 60 60 59 59 59 57 55 53 51 51 50 50 50 50 50 50 48 45 43 41 39 39 38 37 37 38 39 40 40 41 41 42 43 43 42
55 56 57 58 59 60 60 60 60 60 60 59 58 58 57 55 53 50 49 50 50 49 49 48 47 45 42 40 37 36 36 35 34 35 35 36 37 38 38 39 40 41 41 41
54 55 55 56 58 58 59 59 58 58 57 56 55 54 54 53 52 50 49 49 48 47 46 45 44 42 40 37 35 34 33 32 32 32 33 34 34 35 36 37 38 39 40 39
53 54 54 54 54 55 55 55 54 53 52 52 50 48 47 48 47 47 46 46 45 44 43 42 41 40 37 34 33 32 30 29 29 30 30 31 32 33 34 35 36 37 38 38